QPF
0.00 0.00 0.00 0.00 0.00 0.00 0.00 0.00 0.00 0.00 0.00 0.00 0.00 0.00 0.00 0.00 0.00 0.00 0.00 0.00 0.00 0.00 0.00 0.00 0.00 0.00 0.00 0.00 0.00 0.00 0.00 0.00 0.00 0.00 0.00 0.00 0.00 0.00 0.00 0.00 0.00 0.00
0.00 0.00 0.00 0.00 0.00 0.00 0.00 0.00 0.00 0.00 0.00 0.00 0.00 0.00 0.00 0.00 0.00 0.00 0.00 0.00 0.00 0.00 0.00 0.00 0.00 0.00 0.00 0.00 0.00 0.00 0.00 0.00 0.00 0.00 0.00 0.00 0.00 0.00 0.00 0.00 0.00 0.00
0.00 0.00 0.00 0.00 0.00 0.00 0.00 0.00 0.00 0.00 0.00 0.00 0.00 0.00 0.00 0.00 0.00 0.00 0.00 0.00 0.00 0.00 0.00 0.00 0.00 0.00 0.00 0.00 0.00 0.00 0.00 0.00 0.00 0.00 0.00 0.00 0.00 0.00 0.00 0.00 0.00 0.00
0.00 0.00 0.00 0.00 0.00 0.00 0.00 0.00 0.00 0.00 0.00 0.00 0.00 0.00 0.00 0.00 0.00 0.00 0.00 0.00 0.00 0.00 0.00 0.00 0.00 0.00 0.00 0.00 0.00 0.00 0.00 0.00 0.00 0.00 0.00 0.00 0.00 0.00 0.00 0.00 0.00 0.00
0.00 0.00 0.00 0.00 0.00 0.00 0.00 0.00 0.00 0.00 0.00 0.00 0.00 0.00 0.00 0.00 0.00 0.00 0.00 0.00 0.00 0.00 0.00 0.00 0.00 0.00 0.00 0.00 0.00 0.00 0.00 0.00 0.00 0.00 0.00 0.00 0.00 0.00 0.00 0.00 0.00 0.00
0.00 0.00 0.00 0.00 0.00 0.00 0.00 0.00 0.00 0.00 0.00 0.00 0.00 0.00 0.00 0.00 0.00 0.00 0.00 0.00 0.00 0.00 0.00 0.00 0.00 0.00 0.00 0.00 0.00 0.00 0.00 0.00 0.00 0.00 0.00 0.00 0.00 0.00 0.00 0.00 0.00 0.00
0.00 0.00 0.00 0.00 0.00 0.00 0.00 0.00 0.00 0.00 0.00 0.00 0.00 0.00 0.00 0.00 0.00 0.00 0.00 0.00 0.00 0.00 0.00 0.00 0.00 0.00 0.00 0.00 0.00 0.00 0.00 0.00 0.00 0.00 0.00 0.00 0.00 0.00 0.00 0.00 0.00 0.00
0.00 0.00 0.00 0.00 0.00 0.00 0.00 0.00 0.00 0.00 0.00 0.00 0.00 0.00 0.00 0.00 0.00 0.00 0.00 0.00 0.00 0.00 0.00 0.00 0.00 0.00 0.00 0.00 0.00 0.00 0.00 0.00 0.00 0.00 0.00 0.00 0.00 0.00 0.00 0.00 0.00 0.00
0.00 0.00 0.00 0.00 0.00 0.00 0.00 0.00 0.00 0.00 0.00 0.00 0.00 0.00 0.00 0.00 0.00 0.00 0.00 0.00 0.00 0.00 0.00 0.00 0.00 0.00 0.00 0.00 0.00 0.00 0.00 0.00 0.00 0.00 0.00 0.00 0.00 0.00 0.00 0.00 0.00 0.00
0.00 0.00 0.00 0.00 0.00 0.00 0.00 0.00 0.00 0.00 0.00 0.00 0.00 0.00 0.00 0.00 0.00 0.00 0.00 0.00 0.00 0.00 0.00 0.00 0.00 0.00 0.00 0.00 0.00 0.00 0.00 0.00 0.00 0.00 0.00 0.00 0.00 0.00 0.00 0.00 0.00 0.00
0.00 0.00 0.00 0.00 0.00 0.00 0.00 0.00 0.00 0.00 0.00 0.00 0.00 0.00 0.00 0.00 0.00 0.00 0.00 0.00 0.00 0.00 0.00 0.00 0.00 0.00 0.00 0.00 0.00 0.00 0.00 0.00 0.00 0.00 0.00 0.00 0.00 0.00 0.00 0.00 0.00 0.00
0.00 0.00 0.00 0.00 0.00 0.00 0.00 0.00 0.00 0.00 0.00 0.00 0.00 0.00 0.00 0.00 0.00 0.00 0.00 0.00 0.00 0.00 0.00 0.00 0.00 0.00 0.00 0.00 0.00 0.00 0.00 0.00 0.00 0.00 0.00 0.00 0.00 0.00 0.00 0.00 0.00 0.00
0.00 0.00 0.00 0.00 0.00 0.00 0.00 0.00 0.00 0.00 0.00 0.00 0.00 0.00 0.00 0.00 0.00 0.00 0.00 0.00 0.00 0.00 0.00 0.00 0.00 0.00 0.00 0.00 0.00 0.00 0.00 0.00 0.00 0.00 0.00 0.00 0.00 0.00 0.00 0.00 0.00 0.00
0.00 0.00 0.00 0.00 0.00 0.00 0.00 0.00 0.00 0.00 0.00 0.00 0.00 0.00 0.00 0.00 0.00 0.00 0.00 0.00 0.00 0.00 0.00 0.00 0.00 0.00 0.00 0.00 0.00 0.00 0.00 0.00 0.00 0.00 0.00 0.00 0.00 0.00 0.00 0.00 0.00 0.00
0.00 0.00 0.00 0.00 0.00 0.00 0.00 0.00 0.00 0.00 0.00 0.00 0.00 0.00 0.00 0.00 0.00 0.00 0.00 0.00 0.00 0.00 0.00 0.00 0.00 0.00 0.00 0.00 0.00 0.00 0.00 0.00 0.00 0.00 0.00 0.00 0.00 0.00 0.00 0.00 0.00 0.00
0.00 0.00 0.00 0.00 0.00 0.00 0.00 0.00 0.00 0.00 0.00 0.00 0.00 0.00 0.00 0.00 0.00 0.00 0.00 0.00 0.00 0.00 0.00 0.00 0.00 0.00 0.00 0.00 0.00 0.00 0.00 0.00 0.00 0.00 0.00 0.00 0.00 0.00 0.00 0.00 0.00 0.00
0.00 0.00 0.00 0.00 0.00 0.00 0.00 0.00 0.00 0.00 0.00 0.00 0.00 0.00 0.00 0.00 0.00 0.00 0.00 0.00 0.00 0.00 0.00 0.00 0.00 0.00 0.00 0.00 0.00 0.00 0.00 0.00 0.00 0.00 0.00 0.00 0.00 0.00 0.00 0.00 0.00 0.00
0.00 0.00 0.00 0.00 0.00 0.00 0.00 0.00 0.00 0.00 0.00 0.00 0.00 0.00 0.00 0.00 0.00 0.00 0.00 0.00 0.00 0.00 0.00 0.00 0.00 0.00 0.00 0.00 0.00 0.00 0.00 0.00 0.00 0.00 0.00 0.00 0.00 0.00 0.00 0.00 0.00 0.00
0.00 0.00 0.00 0.00 0.00 0.00 0.00 0.00 0.00 0.00 0.00 0.00 0.00 0.00 0.01 0.03 0.02 0.00 0.00 0.00 0.00 0.00 0.00 0.00 0.00 0.00 0.00 0.00 0.00 0.00 0.00 0.00 0.00 0.00 0.00 0.00 0.00 0.00 0.00 0.00 0.00 0.00
0.00 0.00 0.00 0.00 0.00 0.00 0.00 0.00 0.00 0.00 0.00 0.00 0.03 0.07 0.02 0.02 0.04 0.02 0.00 0.00 0.00 0.00 0.00 0.00 0.00 0.00 0.00 0.00 0.00 0.00 0.00 0.00 0.00 0.00 0.00 0.00 0.00 0.00 0.00 0.00 0.00 0.00
0.04 0.01 0.00 0.00 0.00 0.00 0.00 0.00 0.00 0.02 0.03 0.04 0.06 0.13 0.28 0.17 0.15 0.05 0.01 0.00 0.00 0.01 0.00 0.00 0.00 0.00 0.00 0.00 0.00 0.00 0.00 0.00 0.00 0.00 0.00 0.00 0.00 0.00 0.00 0.00 0.00 0.00
0.07 0.04 0.02 0.00 0.00 0.00 0.00 0.00 0.05 0.38 0.56 0.56 0.48 0.68 0.62 0.53 0.45 0.05 0.04 0.05 0.02 0.05 0.01 0.00 0.00 0.00 0.00 0.00 0.00 0.00 0.00 0.00 0.00 0.00 0.00 0.00 0.00 0.00 0.00 0.00 0.00 0.00
0.15 0.12 0.04 0.07 0.08 0.04 0.02 0.04 0.35 0.41 0.24 0.33 0.55 0.54 0.49 0.25 0.30 0.03 0.28 0.33 0.22 0.14 0.02 0.01 0.00 0.00 0.00 0.00 0.00 0.00 0.00 0.00 0.00 0.00 0.00 0.00 0.00 0.00 0.00 0.00 0.00 0.00
0.12 0.18 0.54 0.42 0.26 0.10 0.50 0.50 0.81 0.51 0.44 0.39 0.25 0.35 0.31 0.08 0.13 0.14 0.16 0.06 0.06 0.05 0.04 0.03 0.02 0.01 0.00 0.00 0.00 0.00 0.00 0.00 0.00 0.00 0.00 0.00 0.00 0.00 0.00 0.00 0.02 0.00
0.14 0.10 0.07 0.08 0.06 0.08 0.04 0.10 0.11 0.03 0.13 0.15 0.13 0.11 0.28 0.42 0.13 0.12 0.18 0.12 0.09 0.09 0.08 0.05 0.03 0.02 0.01 0.00 0.00 0.00 0.00 0.00 0.00 0.05 0.04 0.01 0.06 0.03 0.00 0.01 0.49 0.19
0.11 0.07 0.04 0.03 0.02 0.01 0.01 0.00 0.00 0.00 0.00 0.15 0.30 0.02 0.03 0.03 0.03 0.05 0.06 0.05 0.05 0.04 0.03 0.03 0.02 0.02 0.01 0.00 0.00 0.00 0.00 0.00 0.00 0.05 0.01 0.01 0.11 0.21 0.11 0.05 0.10 0.16
MSLP
1019.45 1019.57 1019.73 1019.89 1019.97 1019.97 1020.13 1020.33 1020.37 1020.49 1020.57 1020.57 1020.73 1020.69 1020.69 1020.53 1020.53 1020.65 1020.65 1020.69 1020.77 1020.81 1020.77 1020.77 1020.69 1020.73 1020.73 1020.77 1020.81 1020.93 1021.01 1021.05 1021.05 1021.01 1021.09 1021.09 1021.13 1021.17 1021.21 1021.13 1021.09 1021.09
1019.33 1019.41 1019.49 1019.69 1019.85 1019.85 1019.89 1019.93 1020.09 1020.25 1020.33 1020.37 1020.37 1020.37 1020.37 1020.41 1020.41 1020.49 1020.61 1020.69 1020.69 1020.73 1020.69 1020.73 1020.69 1020.69 1020.73 1020.77 1020.81 1020.93 1021.01 1021.01 1021.09 1020.85 1021.09 1021.13 1021.13 1021.17 1021.21 1021.09 1021.09 1020.97
1019.17 1019.37 1019.49 1019.73 1019.81 1019.81 1019.77 1019.77 1019.89 1020.01 1020.13 1020.13 1020.17 1020.25 1020.29 1020.21 1020.37 1020.37 1020.41 1020.49 1020.61 1020.57 1020.61 1020.61 1020.69 1020.65 1020.69 1020.73 1020.77 1020.89 1020.97 1021.01 1021.09 1020.85 1021.01 1021.09 1021.09 1021.17 1021.13 1021.05 1021.01 1020.97
1018.97 1019.05 1019.25 1019.37 1019.49 1019.61 1019.65 1019.81 1019.89 1019.93 1020.01 1020.21 1020.21 1020.09 1020.13 1020.13 1020.21 1020.33 1020.37 1020.37 1020.45 1020.49 1020.45 1020.49 1020.53 1020.53 1020.61 1020.65 1020.77 1020.89 1020.89 1020.89 1020.81 1020.81 1020.97 1020.93 1020.93 1020.97 1020.97 1020.93 1020.89 1020.85
1018.65 1018.85 1018.97 1019.09 1019.21 1019.33 1019.53 1019.77 1019.89 1019.93 1019.97 1019.93 1019.93 1020.01 1020.09 1020.17 1020.21 1020.25 1020.29 1020.33 1020.33 1020.37 1020.37 1020.41 1020.37 1020.41 1020.45 1020.57 1020.65 1020.85 1020.85 1020.89 1020.77 1020.85 1021.01 1021.05 1020.81 1020.85 1020.81 1020.81 1020.89 1020.89
1018.37 1018.49 1018.65 1018.85 1019.01 1019.25 1019.45 1019.61 1019.69 1019.77 1019.85 1019.97 1019.89 1019.81 1019.89 1019.93 1020.05 1020.09 1020.13 1020.21 1020.21 1020.25 1020.29 1020.29 1020.29 1020.25 1020.29 1020.45 1020.57 1020.73 1020.77 1020.81 1020.69 1020.77 1020.93 1021.01 1020.85 1020.73 1020.77 1020.77 1020.81 1020.89
1018.37 1018.45 1018.61 1018.65 1018.89 1019.01 1019.25 1019.33 1019.37 1019.45 1019.57 1019.53 1019.57 1019.77 1019.69 1019.85 1019.93 1019.89 1019.93 1019.97 1020.05 1020.13 1020.17 1020.21 1020.21 1020.21 1020.13 1020.29 1020.45 1020.61 1020.65 1020.69 1020.65 1020.69 1020.85 1020.81 1020.81 1020.77 1020.65 1020.73 1020.81 1020.85
1018.21 1018.29 1018.41 1018.61 1018.81 1018.93 1019.05 1019.09 1019.17 1019.21 1019.21 1019.33 1019.53 1019.41 1019.45 1019.61 1019.65 1019.65 1019.69 1019.81 1019.93 1019.97 1020.01 1020.01 1020.01 1020.05 1020.01 1020.13 1020.37 1020.49 1020.49 1020.45 1020.57 1020.65 1020.73 1020.77 1020.73 1020.81 1020.57 1020.57 1020.65 1020.77
1018.01 1018.25 1018.37 1018.57 1018.73 1018.81 1018.89 1018.85 1018.85 1018.85 1018.89 1019.17 1019.25 1019.25 1019.21 1019.33 1019.41 1019.49 1019.57 1019.69 1019.81 1019.85 1019.89 1019.93 1019.93 1019.93 1019.93 1020.05 1020.17 1020.29 1020.37 1020.37 1020.33 1020.45 1020.61 1020.69 1020.73 1020.61 1020.49 1020.45 1020.65 1020.65
1017.97 1018.05 1018.25 1018.41 1018.61 1018.61 1018.69 1018.61 1018.57 1018.61 1018.61 1018.85 1018.93 1019.01 1019.21 1019.13 1019.17 1019.29 1019.45 1019.61 1019.73 1019.77 1019.85 1019.85 1019.89 1019.89 1019.93 1019.93 1020.01 1020.09 1020.21 1020.25 1020.21 1020.29 1020.33 1020.37 1020.41 1020.37 1020.33 1020.41 1020.49 1020.61
1017.89 1017.93 1018.09 1018.25 1018.37 1018.41 1018.53 1018.49 1018.53 1018.53 1018.53 1018.69 1018.77 1018.93 1018.93 1019.01 1019.13 1019.13 1019.37 1019.53 1019.65 1019.69 1019.69 1019.73 1019.73 1019.77 1019.89 1019.89 1019.85 1019.81 1019.93 1020.01 1020.05 1020.09 1020.13 1020.13 1020.09 1020.09 1020.09 1020.13 1020.21 1020.29
1017.73 1017.85 1017.93 1017.97 1018.09 1018.25 1018.33 1018.37 1018.41 1018.49 1018.49 1018.45 1018.49 1018.69 1018.73 1018.77 1018.93 1019.05 1019.21 1019.37 1019.37 1019.37 1019.37 1019.41 1019.41 1019.53 1019.65 1019.69 1019.69 1019.73 1019.81 1019.85 1019.85 1019.93 1019.93 1019.93 1019.89 1019.89 1019.85 1019.81 1019.89 1019.89
1017.49 1017.61 1017.69 1017.81 1017.89 1017.97 1018.05 1018.17 1018.29 1018.33 1018.37 1018.41 1018.29 1018.45 1018.61 1018.77 1018.77 1018.97 1018.97 1019.09 1019.13 1019.17 1019.21 1019.21 1019.21 1019.29 1019.41 1019.45 1019.49 1019.57 1019.65 1019.77 1019.81 1019.85 1019.85 1019.81 1019.73 1019.65 1019.57 1019.57 1019.57 1019.57
1017.17 1017.17 1017.33 1017.49 1017.57 1017.65 1017.81 1017.93 1018.05 1018.17 1018.21 1018.17 1018.21 1018.41 1018.49 1018.57 1018.69 1018.77 1018.77 1018.85 1018.89 1018.93 1018.89 1018.89 1019.05 1019.17 1019.25 1019.29 1019.33 1019.37 1019.49 1019.57 1019.61 1019.69 1019.73 1019.69 1019.65 1019.57 1019.53 1019.49 1019.41 1019.37
1016.89 1017.01 1017.05 1017.17 1017.29 1017.49 1017.69 1017.81 1017.93 1018.01 1018.09 1018.13 1018.21 1018.29 1018.25 1018.29 1018.29 1018.37 1018.57 1018.69 1018.61 1018.65 1018.69 1018.69 1018.85 1018.89 1018.89 1019.01 1019.17 1019.25 1019.25 1019.37 1019.37 1019.45 1019.49 1019.57 1019.53 1019.49 1019.41 1019.37 1019.33 1019.25
1016.65 1016.81 1016.97 1017.13 1017.33 1017.45 1017.49 1017.53 1017.69 1017.85 1018.01 1018.13 1018.21 1018.17 1018.17 1018.13 1018.21 1018.21 1018.37 1018.45 1018.57 1018.57 1018.57 1018.61 1018.61 1018.49 1018.45 1018.45 1018.57 1018.77 1018.97 1019.05 1019.09 1019.17 1019.25 1019.29 1019.37 1019.41 1019.29 1019.21 1019.13 1019.05
1016.61 1016.81 1016.89 1017.13 1017.17 1017.29 1017.41 1017.49 1017.57 1017.65 1017.81 1018.01 1018.09 1018.13 1018.17 1018.09 1018.13 1018.25 1018.29 1018.29 1018.41 1018.49 1018.61 1018.57 1018.49 1018.37 1018.37 1018.41 1018.49 1018.53 1018.65 1018.81 1018.97 1019.01 1019.01 1019.09 1019.17 1019.25 1019.29 1019.13 1018.97 1018.85
1016.53 1016.73 1016.89 1017.01 1017.13 1017.25 1017.37 1017.41 1017.45 1017.61 1017.73 1017.85 1017.97 1018.13 1018.21 1018.21 1018.33 1018.33 1018.37 1018.37 1018.37 1018.41 1018.49 1018.45 1018.45 1018.53 1018.61 1018.65 1018.65 1018.69 1018.69 1018.69 1018.65 1018.77 1018.81 1018.93 1018.93 1018.97 1018.93 1018.85 1018.77 1018.69
1016.53 1016.69 1016.89 1017.05 1017.17 1017.17 1017.25 1017.37 1017.49 1017.65 1017.73 1017.81 1017.97 1018.13 1018.33 1018.85 1018.93 1018.77 1018.73 1018.61 1018.53 1018.49 1018.53 1018.53 1018.65 1018.89 1018.81 1018.81 1018.85 1018.89 1018.89 1018.85 1018.81 1018.77 1018.77 1018.73 1018.69 1018.65 1018.65 1018.65 1018.61 1018.53
1016.73 1016.77 1016.97 1017.13 1017.21 1017.29 1017.37 1017.49 1017.65 1017.81 1018.09 1018.33 1018.65 1019.09 1019.37 1019.41 1018.97 1018.89 1018.81 1018.77 1018.81 1018.93 1019.05 1019.13 1019.21 1019.41 1019.33 1019.21 1019.09 1019.05 1019.01 1018.97 1018.85 1018.77 1018.69 1018.61 1018.53 1018.45 1018.33 1018.33 1018.29 1018.33
1016.85 1016.97 1017.21 1017.33 1017.33 1017.37 1017.53 1017.77 1018.13 1018.57 1018.77 1018.61 1018.57 1018.65 1018.61 1018.41 1018.21 1018.33 1018.77 1019.13 1019.37 1019.49 1019.45 1019.41 1019.57 1019.61 1019.53 1019.45 1019.37 1019.21 1019.01 1018.85 1018.81 1018.77 1018.69 1018.57 1018.41 1018.25 1018.13 1017.97 1017.85 1017.85
1017.05 1017.33 1017.45 1017.49 1017.53 1017.53 1017.73 1018.13 1018.57 1018.85 1019.25 1019.29 1019.33 1019.53 1019.41 1019.25 1019.29 1019.53 1019.61 1019.45 1019.21 1019.05 1019.25 1019.65 1019.93 1019.93 1019.73 1019.53 1019.41 1019.25 1019.05 1018.93 1018.89 1018.81 1018.69 1018.49 1018.29 1018.13 1018.05 1017.97 1017.85 1017.77
1017.01 1017.57 1018.01 1018.09 1018.05 1017.93 1018.01 1018.25 1018.41 1018.53 1018.73 1018.69 1018.89 1019.09 1019.45 1019.29 1019.13 1019.21 1019.13 1018.93 1018.77 1018.77 1019.21 1019.57 1019.81 1020.01 1019.89 1019.73 1019.49 1019.29 1019.05 1019.05 1018.97 1018.89 1018.73 1018.57 1018.37 1018.05 1017.93 1017.81 1017.73 1017.81
1017.33 1017.53 1017.73 1017.85 1018.01 1018.29 1018.49 1018.57 1018.49 1018.29 1018.37 1018.41 1018.77 1019.13 1019.13 1018.81 1018.85 1019.13 1019.21 1019.21 1019.25 1019.33 1019.33 1019.65 1019.97 1020.21 1020.13 1019.89 1019.65 1019.45 1019.21 1019.13 1019.09 1019.05 1018.89 1018.69 1018.33 1017.97 1017.81 1017.69 1017.57 1017.45
1017.57 1017.69 1017.81 1017.85 1017.97 1018.13 1018.41 1018.69 1018.65 1018.53 1018.49 1018.57 1018.77 1018.85 1018.89 1018.81 1018.85 1019.05 1019.37 1019.65 1019.61 1019.61 1019.57 1019.81 1020.13 1020.17 1020.09 1019.89 1019.65 1019.45 1019.25 1019.13 1019.09 1019.05 1019.01 1018.69 1018.45 1018.21 1017.89 1017.85 1017.65 1017.53
1017.61 1017.81 1018.05 1018.21 1018.29 1018.33 1018.37 1018.41 1018.41 1018.49 1018.53 1018.61 1018.73 1018.85 1019.05 1019.17 1019.29 1019.53 1019.77 1020.01 1020.01 1019.97 1020.05 1020.17 1020.29 1020.33 1020.25 1020.05 1019.81 1019.53 1019.29 1019.13 1019.17 1019.21 1019.25 1019.05 1018.81 1018.57 1018.29 1017.89 1017.77 1017.65
Thickness
5770 5770 5769 5769 5768 5769 5769 5768 5768 5767 5767 5767 5767 5766 5767 5767 5767 5767 5767 5766 5766 5766 5768 5768 5769 5769 5769 5769 5769 5770 5770 5770 5770 5770 5770 5769 5769 5769 5769 5769 5770 5770
5771 5771 5771 5770 5769 5769 5770 5770 5769 5769 5768 5769 5769 5769 5769 5769 5768 5768 5767 5767 5767 5767 5768 5768 5769 5769 5769 5770 5770 5770 5770 5770 5770 5771 5770 5769 5769 5768 5768 5769 5769 5770
5772 5772 5771 5770 5770 5770 5771 5771 5771 5771 5770 5770 5770 5770 5770 5770 5769 5769 5769 5768 5769 5768 5769 5769 5769 5769 5769 5770 5770 5770 5770 5769 5770 5771 5770 5769 5769 5768 5768 5769 5770 5770
5773 5773 5772 5772 5771 5771 5771 5771 5770 5770 5770 5770 5770 5770 5770 5770 5770 5770 5770 5770 5769 5770 5770 5770 5770 5770 5770 5771 5770 5769 5770 5770 5770 5771 5769 5769 5770 5769 5769 5770 5770 5771
5774 5774 5773 5772 5772 5772 5771 5770 5769 5770 5770 5770 5770 5771 5771 5770 5770 5770 5770 5770 5771 5771 5771 5771 5771 5772 5772 5772 5771 5770 5770 5770 5771 5771 5769 5769 5770 5771 5770 5771 5770 5770
5775 5774 5773 5773 5773 5772 5771 5770 5770 5770 5770 5770 5770 5771 5771 5771 5771 5771 5771 5771 5771 5771 5772 5771 5772 5773 5773 5773 5772 5771 5770 5770 5771 5771 5769 5769 5770 5770 5771 5770 5769 5769
5773 5774 5774 5773 5772 5772 5771 5771 5771 5771 5771 5771 5771 5771 5771 5771 5771 5771 5772 5771 5772 5771 5772 5772 5773 5773 5774 5774 5772 5771 5771 5770 5771 5771 5769 5769 5769 5769 5770 5770 5769 5769
5773 5773 5773 5773 5772 5771 5771 5772 5772 5773 5773 5772 5771 5772 5773 5772 5772 5772 5772 5772 5772 5772 5772 5773 5773 5774 5774 5774 5773 5772 5772 5771 5771 5770 5769 5769 5769 5768 5769 5770 5769 5768
5772 5773 5772 5772 5771 5771 5772 5773 5774 5775 5774 5773 5772 5773 5773 5773 5773 5773 5773 5772 5772 5772 5773 5773 5772 5773 5774 5773 5773 5772 5771 5772 5772 5771 5770 5769 5769 5769 5770 5770 5769 5769
5771 5772 5772 5771 5771 5771 5772 5773 5774 5775 5775 5774 5774 5774 5773 5773 5774 5774 5773 5772 5771 5771 5772 5772 5772 5772 5772 5772 5773 5772 5771 5772 5772 5772 5771 5770 5770 5770 5771 5771 5770 5769
5770 5770 5771 5771 5770 5771 5771 5772 5773 5774 5774 5774 5774 5774 5774 5774 5774 5773 5772 5771 5771 5771 5771 5771 5772 5772 5771 5771 5772 5772 5772 5772 5772 5772 5772 5772 5772 5772 5772 5771 5771 5770
5769 5769 5770 5769 5769 5769 5770 5771 5772 5772 5773 5774 5774 5774 5774 5774 5773 5772 5772 5771 5771 5772 5771 5772 5772 5772 5771 5771 5771 5772 5771 5771 5772 5772 5772 5772 5772 5773 5773 5773 5773 5772
5769 5770 5770 5769 5769 5770 5770 5771 5771 5772 5772 5773 5773 5773 5772 5772 5772 5771 5771 5771 5770 5771 5771 5772 5772 5772 5771 5771 5771 5772 5771 5771 5771 5771 5771 5772 5772 5773 5774 5774 5774 5774
5770 5770 5771 5770 5770 5771 5771 5770 5771 5770 5771 5772 5772 5772 5771 5771 5771 5770 5770 5770 5770 5771 5771 5772 5771 5770 5770 5770 5770 5770 5770 5770 5770 5770 5770 5770 5771 5772 5773 5773 5773 5774
5768 5769 5770 5770 5770 5770 5770 5770 5770 5769 5770 5770 5770 5770 5770 5770 5770 5770 5770 5769 5770 5770 5771 5771 5770 5770 5771 5770 5770 5770 5769 5770 5770 5770 5769 5770 5770 5771 5772 5772 5772 5773
5766 5766 5767 5767 5767 5768 5768 5768 5769 5769 5768 5768 5768 5769 5769 5769 5769 5769 5769 5768 5768 5768 5768 5769 5769 5770 5771 5771 5770 5770 5769 5769 5769 5769 5770 5769 5769 5769 5770 5771 5772 5773
5764 5764 5764 5764 5765 5764 5765 5767 5767 5767 5767 5766 5766 5766 5767 5768 5767 5767 5767 5767 5766 5766 5766 5766 5767 5768 5768 5768 5769 5769 5769 5769 5768 5769 5769 5768 5768 5767 5768 5769 5771 5771
5762 5762 5762 5762 5762 5762 5763 5764 5765 5765 5765 5764 5765 5765 5765 5765 5764 5764 5764 5764 5764 5764 5763 5764 5764 5764 5765 5765 5766 5766 5766 5767 5767 5768 5768 5767 5767 5767 5767 5768 5769 5770
5759 5759 5759 5759 5760 5760 5761 5762 5763 5763 5762 5762 5761 5760 5759 5758 5758 5759 5760 5760 5761 5761 5760 5761 5760 5760 5760 5761 5762 5763 5763 5763 5765 5764 5765 5766 5766 5766 5767 5767 5768 5769
5755 5755 5755 5755 5757 5758 5759 5760 5759 5758 5757 5757 5756 5755 5754 5754 5756 5757 5757 5757 5757 5756 5755 5755 5755 5754 5755 5757 5757 5759 5760 5761 5762 5762 5763 5764 5764 5766 5766 5767 5767 5767
5750 5751 5752 5752 5753 5755 5755 5754 5753 5751 5750 5751 5752 5753 5753 5755 5755 5753 5752 5751 5751 5751 5750 5749 5748 5748 5750 5752 5753 5755 5757 5758 5759 5760 5760 5762 5763 5764 5765 5766 5767 5767
5746 5745 5745 5747 5748 5751 5751 5749 5747 5746 5743 5743 5744 5745 5745 5747 5747 5744 5744 5746 5750 5750 5749 5746 5745 5745 5746 5748 5749 5751 5753 5755 5755 5756 5758 5759 5761 5762 5763 5764 5764 5765
5741 5740 5738 5739 5742 5744 5745 5745 5745 5744 5742 5742 5742 5741 5741 5743 5744 5742 5742 5745 5747 5748 5745 5742 5741 5741 5742 5743 5746 5748 5750 5751 5752 5753 5754 5756 5758 5760 5762 5762 5763 5763
5736 5736 5735 5736 5738 5739 5738 5738 5739 5740 5741 5741 5740 5739 5740 5742 5742 5741 5739 5740 5741 5740 5739 5738 5737 5737 5738 5739 5742 5745 5747 5747 5748 5749 5750 5751 5754 5756 5758 5759 5760 5760
5731 5732 5733 5734 5736 5736 5734 5733 5734 5735 5737 5738 5737 5736 5737 5738 5739 5737 5734 5733 5733 5734 5734 5733 5731 5732 5734 5735 5738 5740 5742 5744 5744 5745 5746 5748 5749 5751 5753 5753 5755 5755
5728 5728 5728 5728 5729 5730 5731 5731 5731 5733 5733 5733 5733 5733 5732 5731 5731 5731 5729 5728 5728 5728 5728 5726 5725 5725 5727 5729 5732 5734 5737 5739 5740 5739 5740 5741 5742 5744 5746 5748 5750 5751